Wind_Speed
31 35 40 44 48 55 62 64 65 62 59 58 56 55 56 55 51 49 46 42 42 43 43 42 40 39 39 38 37 37 37 34 32 29 26 25 25 24 23 22 22 22 23 23 22 22 22 22 21 20 21 23 22 22 21 21 22 22 21 20 20 21 20 20 20 19 19 20 19 20 21 21 21 21 21 22 23 23 23 23 23 23 24 24 24 24
29 30 34 44 53 59 62 63 62 61 59 58 58 57 56 53 50 49 47 42 42 43 42 42 42 41 41 40 39 39 37 33 31 30 27 27 26 25 24 23 23 23 24 23 22 21 22 22 21 21 22 24 24 24 23 23 24 24 23 22 22 23 22 22 22 22 21 21 21 21 22 22 22 22 23 23 24 25 25 25 25 25 25 25 25 25
29 28 32 45 57 61 62 62 61 60 60 60 60 57 53 51 51 50 47 43 43 44 43 44 45 43 41 41 41 40 37 34 33 32 30 29 27 25 24 24 24 24 24 23 22 21 21 21 21 22 23 24 25 25 25 25 25 25 25 24 24 24 24 24 24 24 24 23 22 23 23 24 24 24 24 24 25 26 27 27 27 26 27 26 26 26
30 29 34 46 58 61 62 61 60 59 59 59 58 55 50 49 50 49 46 45 44 44 45 45 46 44 43 43 42 40 37 35 34 33 32 31 28 25 25 25 25 24 23 23 23 21 20 20 20 22 23 24 25 26 26 26 26 27 27 26 26 26 26 27 26 26 26 25 25 25 26 26 26 26 26 26 27 27 28 28 29 28 28 28 28 29
31 31 37 47 57 62 62 60 57 57 58 57 55 54 51 50 51 49 46 46 45 45 46 45 46 46 44 43 41 38 37 37 36 35 34 32 29 27 26 25 25 24 24 24 23 21 21 20 20 22 23 24 25 25 25 26 28 28 28 28 28 28 28 29 29 29 28 28 27 28 28 28 29 29 28 28 29 29 29 30 30 30 30 30 31 31
32 33 38 46 55 62 63 60 56 56 57 56 54 54 52 51 51 50 48 48 46 46 46 45 47 46 42 42 40 38 38 38 37 36 34 33 31 29 27 25 25 25 25 24 23 22 21 21 21 22 23 24 25 25 26 28 29 29 30 30 30 30 30 30 32 32 31 30 30 30 30 30 31 31 30 30 30 31 31 31 32 32 32 32 32 33
33 34 38 45 54 61 63 61 57 56 55 54 53 53 52 52 51 49 48 48 47 47 47 46 47 46 43 42 41 40 40 39 37 36 35 33 32 30 27 26 26 26 26 25 23 23 23 22 22 22 23 24 25 26 27 28 30 30 30 31 31 31 31 32 33 34 33 33 33 33 33 33 33 33 32 32 32 33 33 33 33 34 33 34 34 34
34 35 38 45 53 60 64 62 59 57 54 53 53 52 51 51 50 48 47 48 49 50 49 48 48 47 46 44 43 41 40 39 39 37 34 33 32 31 29 28 28 28 27 26 25 24 24 23 23 23 24 25 26 27 28 29 30 30 31 32 32 33 32 33 34 35 35 35 34 35 35 35 35 35 34 34 35 35 35 36 36 36 35 35 36 36
34 36 39 45 51 58 63 63 60 56 54 53 53 51 48 48 48 48 48 49 51 52 51 49 48 50 49 45 43 43 41 40 39 37 34 32 32 32 30 30 29 29 28 27 26 26 25 25 25 25 25 26 27 28 28 29 29 30 31 32 33 33 34 34 35 36 36 36 36 37 37 37 36 36 36 36 36 37 37 37 38 38 37 37 38 38
35 36 39 44 50 55 61 62 60 56 54 53 52 49 46 45 46 47 48 49 51 54 54 51 49 51 51 47 45 45 42 40 38 36 35 34 33 33 31 31 30 29 28 28 28 27 27 27 27 27 27 28 28 29 30 30 30 31 31 32 33 34 35 35 36 36 37 37 37 38 38 38 38 37 37 38 38 38 38 39 39 40 39 39 39 39
35 36 39 43 47 52 58 62 59 55 54 53 52 50 46 44 45 47 49 50 52 56 55 53 51 52 53 51 48 47 43 39 37 36 37 36 34 33 32 31 30 30 29 29 29 29 29 29 29 29 29 29 30 31 31 32 32 32 33 33 34 35 35 36 36 37 37 38 38 38 38 39 38 38 39 39 39 39 40 40 41 41 41 41 41 41
37 38 40 41 44 50 57 61 60 57 55 54 52 52 48 46 46 47 50 51 53 57 56 54 53 54 56 54 50 49 45 39 36 36 37 37 34 33 33 32 31 31 31 31 31 30 30 30 30 30 30 30 32 33 33 33 34 34 35 36 36 36 36 36 37 37 38 39 38 39 39 40 40 40 41 41 41 41 41 42 42 43 42 42 42 42
39 40 40 41 43 49 55 60 60 59 59 56 54 53 51 50 49 49 52 53 54 56 55 54 55 56 60 56 50 48 45 39 37 36 36 36 35 34 35 34 33 33 33 33 33 32 32 32 32 32 31 32 33 34 35 36 36 37 37 38 38 38 38 38 38 39 39 40 40 40 41 41 42 43 43 42 42 42 43 44 44 44 44 43 43 42
40 41 42 42 44 47 53 59 61 62 62 59 56 54 52 52 53 52 52 54 54 54 55 54 55 57 59 56 51 47 44 41 39 37 36 36 36 36 36 36 36 35 34 34 34 34 34 33 34 34 34 34 35 36 37 37 38 39 40 40 41 40 40 40 40 40 41 41 42 42 43 44 44 44 44 44 44 44 45 45 45 45 44 44 43 42
39 40 40 42 44 46 51 56 60 61 58 55 53 51 50 50 52 51 51 52 53 53 53 54 55 57 57 55 51 46 44 43 41 39 38 37 36 36 36 37 37 36 36 35 35 35 35 35 35 36 36 37 37 38 39 40 40 41 41 42 43 43 43 43 43 42 43 43 44 44 45 45 45 45 45 45 45 46 46 47 46 46 45 44 43 42
39 39 38 39 41 43 47 52 57 59 56 54 53 52 50 49 50 50 49 50 52 52 53 54 56 57 55 53 51 47 45 45 44 42 41 39 37 36 36 37 38 38 37 37 37 37 37 37 37 37 37 38 39 39 40 41 41 42 43 44 44 45 45 45 45 45 45 46 46 46 46 47 47 47 47 47 47 47 47 47 46 46 45 43 42 42
40 39 39 39 41 42 44 48 54 58 58 58 57 55 54 50 48 48 49 50 51 53 55 55 56 56 54 53 53 49 47 46 44 43 42 41 40 38 37 38 39 39 39 39 39 39 39 39 39 39 39 40 40 41 42 42 43 43 43 44 45 45 45 46 47 47 47 48 48 48 48 48 48 48 48 48 48 48 47 47 46 45 44 43 42 42
37 38 38 39 40 42 43 45 49 54 57 59 58 56 53 50 47 47 48 49 50 53 57 58 58 56 54 55 54 51 48 46 44 43 42 43 42 40 39 40 40 39 40 40 40 40 41 41 41 41 41 42 42 43 43 44 44 44 44 45 45 45 45 46 46 47 48 49 49 49 49 49 49 49 49 49 48 48 47 46 45 44 43 43 43 42
35 37 38 38 40 42 43 44 46 49 53 56 57 56 52 49 49 49 49 51 52 53 57 60 61 59 57 56 53 50 48 46 45 44 44 43 43 42 41 41 40 40 41 41 41 42 42 42 42 43 43 44 44 45 45 46 46 46 46 46 45 45 45 45 46 47 48 48 49 49 50 50 49 49 49 48 48 47 46 45 44 43 43 43 42 42
36 38 39 38 39 42 43 45 46 47 50 53 55 56 54 51 51 50 50 51 52 53 55 59 61 62 60 56 52 49 48 47 44 44 44 44 44 44 44 43 42 42 43 43 43 43 43 44 45 45 46 46 46 46 47 47 47 47 47 47 46 46 46 46 47 47 48 48 49 49 49 49 49 48 48 47 47 46 45 44 44 43 43 42 42 43
38 38 40 40 41 43 45 46 46 46 46 48 51 53 55 54 54 53 52 52 52 53 55 58 61 63 61 57 52 49 48 47 45 44 43 44 44 45 46 45 45 45 45 45 45 46 46 47 48 48 48 47 47 47 47 47 47 47 46 46 46 47 47 47 47 47 47 48 48 48 48 48 47 47 47 46 45 45 44 44 43 43 43 43 43 44
40 39 41 43 44 44 45 45 46 46 45 45 46 48 50 51 52 53 54 54 54 55 56 59 62 63 61 58 54 50 49 49 48 47 46 46 46 46 47 47 47 47 47 47 48 49 49 50 50 49 48 47 47 47 46 46 46 46 46 46 46 46 47 46 46 46 47 47 47 47 47 46 46 46 45 45 44 44 44 44 43 43 44 44 45 46
42 41 42 44 45 46 47 47 47 47 46 46 46 46 46 48 49 51 53 55 54 55 55 56 60 64 61 59 57 54 52 51 49 47 46 46 46 47 47 48 49 49 50 50 50 51 51 51 51 49 48 47 46 45 45 45 44 44 45 45 45 46 46 46 45 45 46 46 46 45 45 45 45 44 44 44 44 44 44 44 44 44 45 46 47 48
44 45 45 45 45 46 47 48 49 49 49 49 49 49 50 50 50 50 51 51 52 53 53 53 60 65 61 58 57 56 55 53 50 47 45 45 46 47 48 48 49 50 51 52 52 52 51 50 49 48 47 46 45 45 44 44 44 44 44 45 44 44 45 44 44 44 44 44 44 44 44 44 44 44 44 44 44 44 44 45 45 46 47 47 48 49
47 49 48 48 48 47 48 50 51 50 50 51 52 52 53 52 52 52 51 52 53 53 53 53 59 61 57 56 56 55 54 52 51 49 47 46 47 47 48 48 48 49 50 50 50 49 48 47 46 46 45 45 45 45 45 45 45 45 45 45 44 44 43 43 43 43 43 43 43 43 43 44 43 43 43 44 44 45 45 46 47 48 48 49 51 52
49 51 50 50 50 50 48 45 43 43 46 50 52 53 55 54 54 54 53 53 55 55 54 55 55 51 49 51 53 52 52 50 50 51 49 47 47 47 48 48 48 48 47 46 45 44 44 43 43 43 43 43 43 44 44 44 45 45 45 45 44 43 43 42 42 43 42 42 43 43 43 43 43 43 44 45 46 46 47 48 49 50 51 52 53 54
51 52 51 51 50 48 45 42 41 41 43 45 45 47 51 53 54 54 54 55 55 55 56 57 54 47 43 48 52 52 52 50 49 50 48 46 46 47 48 47 47 46 44 43 42 41 41 41 40 40 41 42 42 43 43 43 44 44 43 43 42 42 42 42 42 42 42 42 43 43 43 43 44 45 46 47 48 48 49 50 52 53 53 55 56 57
53 53 52 51 50 47 46 48 49 47 45 43 41 41 43 45 48 51 54 54 54 57 58 57 56 50 43 47 53 54 53 52 49 48 47 46 46 48 48 46 45 44 42 41 40 38 38 38 38 39 40 41 41 41 42 42 42 42 42 41 41 41 41 41 42 42 43 43 44 44 45 46 47 48 49 50 50 51 52 53 54 55 56 57 58 60
53 54 52 52 51 50 51 54 54 51 49 48 46 45 43 43 45 47 48 47 48 54 55 52 55 54 47 48 54 55 55 54 51 51 51 50 48 47 47 46 43 41 39 38 37 36 35 35 36 37 38 39 39 39 40 40 41 41 41 41 41 41 41 42 42 43 44 45 46 46 48 49 50 51 51 52 53 54 55 56 56 57 59 60 61 63
55 54 53 54 54 53 54 57 56 54 54 53 51 50 48 48 48 48 48 46 45 47 45 43 47 51 48 48 51 53 56 56 54 54 54 51 47 45 45 44 42 39 38 37 36 36 36 36 37 38 38 39 39 39 40 40 41 41 41 42 42 42 43 44 45 46 46 47 48 49 50 51 52 53 53 54 55 56 58 58 59 60 61 63 64 65
55 55 55 56 55 56 56 56 56 57 57 56 54 53 52 51 51 51 50 49 48 48 43 39 43 43 39 40 45 48 51 54 54 53 51 47 45 44 44 44 41 40 41 40 39 39 40 40 41 41 41 41 41 41 41 41 42 43 43 44 45 45 46 47 48 48 49 49 50 51 52 53 54 55 56 57 59 60 60 61 62 63 64 65 65 65
53 55 56 56 57 58 56 56 57 58 58 59 58 56 54 53 52 51 50 49 50 50 45 43 44 39 30 31 37 41 46 50 50 49 47 44 43 44 45 45 43 43 44 44 44 44 44 44 44 44 44 44 43 43 43 43 45 45 46 47 48 48 49 49 50 50 51 52 53 54 55 56 57 58 59 61 62 62 62 63 64 65 65 65 65 65
48 51 53 54 57 57 56 57 57 57 61 63 59 53 52 51 51 52 52 51 50 50 48 46 44 36 31 32 35 37 43 47 47 47 46 45 44 45 46 47 47 48 48 47 47 46 46 46 46 46 46 46 45 45 46 47 47 48 49 49 50 50 51 52 52 53 54 55 56 57 58 59 60 61 62 63 63 63 63 64 65 65 65 65 64 64
48 49 50 52 54 54 56 57 56 60 64 59 51 49 52 52 53 54 54 52 51 51 50 47 42 38 38 40 38 39 42 46 47 47 47 47 47 48 50 50 50 50 50 49 49 49 49 49 49 49 48 48 48 48 49 50 50 51 51 51 52 53 54 55 56 56 57 58 59 60 60 61 61 62 63 63 63 64 65 65 65 65 65 65 65 65
52 51 51 52 53 55 56 57 59 64 61 52 48 52 55 54 55 56 55 53 52 53 53 51 47 44 44 44 43 43 43 44 47 49 50 50 51 53 53 53 52 51 51 51 52 53 53 53 52 52 51 51 52 52 52 53 53 53 54 54 55 56 57 58 59 60 61 61 61 62 61 61 62 62 63 64 64 65 65 65 65 65 65 65 65 65
54 54 54 54 55 56 58 60 63 63 58 53 54 55 54 55 57 58 58 55 53 54 55 54 50 46 44 45 46 47 47 46 48 50 52 54 56 56 56 54 53 53 54 55 56 56 56 55 55 55 55 55 55 55 56 56 56 57 57 58 59 60 60 61 61 62 62 62 62 62 62 62 63 63 64 65 65 65 65 64 65 65 65 65 65 65
53 54 55 56 58 58 60 62 62 61 60 58 54 51 51 55 57 58 59 56 53 54 54 52 49 46 45 47 48 49 50 50 51 50 51 56 59 59 58 57 56 57 58 59 59 58 57 58 58 58 59 59 59 59 59 59 59 59 60 60 60 61 62 62 62 62 63 62 62 62 62 63 64 64 64 65 64 65 65 65 65 65 65 65 65 65
53 54 55 57 58 59 61 62 63 64 61 52 48 49 52 56 57 58 60 59 54 52 52 51 49 47 46 49 51 51 52 55 55 50 49 55 59 59 59 59 59 60 61 60 60 59 59 59 59 60 60 60 60 61 60 61 61 61 61 61 62 62 62 63 63 63 63 62 63 63 63 64 64 64 64 64 65 65 65 65 64 64 64 65 65 65
54 54 54 56 58 58 60 62 63 64 57 46 46 50 53 57 57 57 62 60 49 47 51 51 49 47 47 50 52 51 54 57 55 49 49 54 55 55 57 59 59 61 61 61 60 60 60 60 60 60 61 61 61 62 62 62 62 62 62 62 63 63 63 63 63 62 62 62 63 63 64 64 64 64 65 65 65 64 64 64 64 64 65 65 65 65
58 57 57 58 58 58 59 60 60 59 53 47 48 50 52 56 57 60 63 56 44 45 51 50 47 47 48 50 50 50 53 54 52 50 52 54 54 54 56 57 59 61 61 61 61 60 60 61 61 61 62 62 62 62 62 63 63 63 63 63 63 63 63 63 62 62 62 63 63 64 64 65 65 65 65 64 64 64 64 64 64 65 65 65 65 65
62 61 61 61 59 59 60 60 59 58 53 49 49 48 50 54 57 60 59 51 45 48 49 46 47 48 48 48 49 49 50 50 50 52 54 55 55 55 56 57 58 59 60 60 61 61 61 62 62 62 62 62 62 62 62 62 62 62 62 62 62 62 62 62 62 62 63 63 64 64 64 64 65 64 64 64 64 64 64 65 65 65 65 65 66 66
64 64 64 64 63 63 63 62 62 61 55 52 54 53 52 54 57 56 50 45 44 46 44 44 46 47 47 49 49 48 49 49 51 53 54 55 56 56 56 57 58 59 60 61 61 62 62 63 63 63 63 63 63 63 63 62 62 62 62 62 62 62 62 62 62 62 63 63 63 64 64 64 64 64 64 64 64 65 65 65 66 66 66 66 67 68
64 64 65 65 64 64 64 65 67 65 58 55 57 58 57 58 56 51 46 44 44 43 43 44 44 45 48 50 50 50 51 51 53 54 55 56 57 57 57 58 58 59 60 61 62 62 63 63 63 63 63 63 63 63 62 62 62 62 62 62 62 62 61 62 62 63 63 64 64 64 65 65 65 65 65 65 66 66 66 66 66 66 67 67 68 68
64 64 65 65 65 66 67 68 68 65 59 57 56 55 56 56 54 50 48 47 47 45 45 45 46 48 51 51 51 52 53 53 55 56 57 58 58 59 59 59 60 61 61 61 62 63 63 63 62 62 62 61 61 61 61 61 61 61 61 61 61 61 62 62 63 64 64 65 65 66 66 66 66 67 67 67 67 67 66 66 66 67 67 68 68 69
67 65 65 64 65 65 66 65 63 60 59 58 56 55 56 57 56 55 53 51 51 50 48 47 49 51 52 53 54 55 54 55 57 58 59 60 60 61 62 62 63 63 63 64 64 63 63 63 62 61 61 61 61 61 61 61 61 61 61 62 62 63 64 65 66 66 67 67 68 68 68 68 68 67 67 67 66 66 66 66 66 67 68 68 69 70
66 64 63 63 64 65 64 64 62 60 60 60 58 57 58 58 58 59 58 56 55 54 52 51 51 51 53 55 55 55 55 56 56 57 58 60 61 63 64 64 65 65 65 66 66 65 65 65 64 63 63 62 62 63 63 63 63 64 64 65 65 66 66 66 66 66 67 67 67 67 66 66 66 66 65 65 66 66 66 67 67 68 69 69 70 70
66 65 64 63 64 65 66 65 64 61 60 59 58 57 57 58 59 59 60 60 60 58 57 57 55 55 56 56 56 57 56 56 55 56 57 58 59 61 62 63 64 65 65 65 66 66 66 66 66 66 66 66 66 65 65 65 65 64 64 63 63 63 63 63 63 63 63 63 63 64 64 64 65 65 65 65 66 66 67 67 68 69 70 70 71 71
65 65 65 64 65 66 66 65 62 61 61 60 59 59 59 60 60 60 61 62 63 63 62 62 61 61 60 60 61 61 60 60 60 59 59 59 59 60 60 61 62 62 63 64 64 65 65 65 66 66 66 66 65 64 62 61 60 60 59 59 58 59 59 59 60 60 61 61 62 62 63 63 64 64 64 65 65 66 67 68 69 70 70 71 71 71
64 64 65 66 65 66 66 65 64 64 63 62 61 60 60 61 61 62 63 64 64 65 65 64 64 64 64 64 65 65 65 65 65 64 63 62 62 61 61 62 62 62 63 63 63 63 62 62 61 61 60 60 60 59 58 57 57 57 57 57 58 58 58 59 59 59 60 60 60 61 61 62 62 62 63 64 65 66 68 68 69 70 70 71 72 73
64 65 66 66 66 66 66 65 64 64 63 62 61 61 62 62 62 63 63 64 65 65 65 65 65 65 65 65 66 66 67 67 67 67 66 65 64 64 63 62 61 61 60 60 59 59 58 57 57 56 57 57 57 57 58 58 58 58 57 57 57 57 57 57 57 58 58 58 59 59 60 60 61 62 63 64 65 66 67 68 69 70 71 72 73 74
64 65 65 65 65 65 64 62 62 63 63 62 62 63 64 64 64 63 64 64 65 65 64 64 64 64 64 64 64 65 65 65 65 65 65 64 64 63 61 60 58 57 56 56 56 55 56 56 56 56 57 57 58 58 58 58 57 57 55 54 54 54 55 55 56 57 57 58 59 60 60 61 62 63 64 65 66 68 69 70 71 72 73 73 74 74
Wind_Direction
234 230 228 225 220 213 206 198 195 197 201 206 207 207 211 212 211 211 211 213 215 216 216 216 215 215 217 217 216 220 221 220 224 224 221 223 223 222 221 220 221 220 220 221 220 221 224 227 229 226 227 231 234 237 240 244 250 253 254 258 262 264 267 270 274 279 283 286 288 291 293 294 295 298 302 308 313 314 315 314 314 314 315 315 313 311
235 234 231 225 215 206 200 196 196 199 202 206 208 208 212 212 210 211 211 212 215 216 216 216 215 214 217 219 218 220 222 220 223 225 222 223 224 223 222 222 222 222 223 225 224 224 225 227 230 230 229 232 236 239 242 244 249 254 255 258 261 265 267 269 272 276 280 282 286 289 292 293 294 296 298 303 308 311 314 314 313 313 314 314 311 308
236 235 231 222 211 202 197 196 198 201 203 207 209 208 212 212 209 211 211 211 214 216 216 217 216 215 216 220 220 220 221 221 221 224 224 224 225 224 223 225 225 227 228 229 230 230 230 230 231 232 234 236 238 241 245 247 250 255 258 259 262 266 269 271 273 276 279 283 286 290 292 294 296 295 297 300 304 308 312 312 312 311 311 312 309 307
237 236 230 219 209 200 196 197 200 203 205 209 211 210 212 213 211 212 211 211 214 216 217 218 217 216 216 219 221 220 221 222 221 223 226 226 226 226 226 227 229 231 232 232 233 234 235 235 235 236 238 239 242 244 247 250 253 256 260 262 265 268 271 274 275 277 280 283 286 289 292 294 296 296 297 297 299 304 308 310 310 310 310 310 309 308
236 234 228 220 211 202 197 198 202 206 208 211 211 210 212 213 212 213 212 212 215 217 219 220 219 217 217 220 222 222 222 224 222 222 226 228 228 228 229 229 231 234 235 235 236 237 238 239 239 239 242 244 246 249 251 253 255 257 260 263 266 269 273 276 277 279 281 284 286 289 291 293 294 295 296 296 297 300 304 307 308 308 308 308 308 308
235 232 228 222 213 204 199 198 202 207 209 211 211 210 212 213 212 213 213 214 216 219 220 223 222 217 217 222 222 222 224 225 225 223 225 229 231 230 231 232 235 236 237 239 240 240 240 241 241 243 245 248 250 252 253 255 256 258 261 263 266 268 271 274 278 280 282 284 286 288 290 292 292 293 294 295 296 298 301 304 306 307 307 307 307 306
234 232 229 224 214 205 201 199 201 207 209 211 211 211 214 214 213 213 214 216 217 220 221 224 225 219 217 221 222 222 224 225 226 225 224 228 232 232 233 234 237 239 241 242 243 243 244 244 244 245 247 250 251 253 255 257 259 261 263 264 266 267 269 272 275 279 281 283 286 287 289 290 290 291 293 294 296 297 300 303 304 305 305 305 305 304
233 231 227 224 216 208 204 200 202 206 209 210 210 211 215 216 213 213 216 218 219 221 222 223 225 222 217 219 223 223 224 226 227 228 226 228 232 234 235 235 237 240 243 245 247 247 248 248 248 248 249 251 252 254 256 259 261 263 264 265 267 268 269 271 273 276 279 281 284 286 287 288 288 289 291 293 295 296 299 302 303 304 304 303 303 302
233 232 227 223 218 212 208 203 202 206 209 210 210 212 216 218 216 215 218 220 220 222 223 223 225 225 219 217 223 225 224 226 227 229 230 229 232 235 236 238 238 240 242 246 249 251 252 253 253 252 253 254 254 255 258 260 262 264 266 267 268 269 269 271 272 275 277 280 282 284 285 286 286 288 290 292 293 295 297 300 302 302 302 301 300 300
232 233 228 223 219 216 211 206 204 207 209 210 211 212 215 220 219 218 220 221 222 223 223 222 224 227 222 217 222 225 224 226 227 229 232 231 232 235 237 240 242 243 244 246 248 251 254 255 256 256 256 257 257 258 260 261 263 265 266 268 268 269 270 271 272 274 276 279 281 282 283 284 285 287 289 290 291 293 295 298 300 300 300 299 298 298
227 229 228 225 223 219 213 208 207 209 210 211 212 213 214 219 221 221 222 223 224 224 223 223 224 228 226 219 220 225 225 225 227 229 232 233 234 237 239 241 244 247 248 248 249 251 253 256 258 259 259 260 261 262 262 262 264 265 266 267 268 269 271 272 273 274 276 278 279 281 282 284 285 286 287 288 289 291 293 296 297 298 297 296 296 296
224 225 227 227 226 221 215 211 210 210 212 212 214 214 214 218 221 222 223 224 225 224 223 224 224 227 229 222 220 226 226 224 227 231 234 235 237 240 242 243 244 247 249 250 252 253 255 256 258 260 261 263 264 265 265 265 265 265 265 266 268 269 271 272 273 275 276 277 279 280 282 283 284 285 286 286 287 289 292 294 296 296 295 295 295 295
224 224 226 227 226 223 218 214 212 212 213 214 215 215 215 218 222 223 225 225 225 224 224 226 226 227 229 226 224 227 230 227 228 233 236 237 239 241 244 245 245 246 248 250 252 255 257 259 261 263 264 265 265 266 267 267 267 267 267 268 269 270 271 272 273 274 275 277 279 280 282 283 283 283 284 284 286 288 291 293 294 294 293 294 294 294
225 224 225 226 225 223 221 217 215 214 214 216 217 217 217 220 223 224 226 227 226 226 226 227 229 228 229 230 228 229 233 233 231 233 237 239 240 242 245 247 247 247 248 248 251 254 256 259 262 265 267 268 269 269 270 269 269 269 269 269 269 270 270 271 273 274 275 277 278 280 280 281 281 281 282 283 286 289 291 292 292 292 292 293 293 292
234 233 231 229 227 225 222 220 218 217 217 219 221 221 221 223 227 228 230 231 230 230 231 231 232 231 229 232 233 231 234 237 236 235 237 239 241 243 246 248 249 250 250 251 252 254 256 258 260 263 265 267 269 270 271 271 272 271 271 271 270 270 270 271 273 274 275 276 277 278 279 279 279 280 281 283 286 288 290 291 291 291 291 291 290 289
234 236 236 235 234 231 227 224 221 219 219 221 222 223 223 225 229 231 233 234 234 234 235 234 233 232 231 234 236 234 233 235 238 239 239 241 242 244 247 249 250 252 252 253 255 257 259 260 261 262 263 265 266 268 269 270 271 271 271 270 270 270 270 271 272 272 273 274 276 276 277 278 278 280 281 284 286 287 288 289 289 289 289 289 288 287
232 232 230 229 232 232 230 228 225 222 222 222 223 225 225 225 230 233 234 235 237 238 237 235 234 234 234 236 237 236 234 234 238 242 244 245 246 248 249 249 251 252 254 255 257 259 261 262 263 264 264 265 266 268 269 269 270 270 270 269 269 269 270 270 270 271 271 272 273 274 275 276 278 279 281 283 285 285 286 287 287 287 287 286 286 286
237 237 233 228 229 231 231 231 228 226 225 225 226 227 227 228 230 232 235 236 237 239 238 236 235 235 236 237 237 238 239 238 240 244 247 249 250 252 252 252 252 254 256 258 259 261 262 263 264 265 266 267 267 268 269 270 270 270 269 269 269 270 270 270 270 270 270 271 272 273 274 275 277 279 281 282 283 284 284 284 285 285 285 285 285 286
235 236 235 232 231 231 231 232 232 231 229 229 229 229 230 231 230 231 234 236 237 238 238 237 236 236 236 237 239 242 243 244 244 246 248 250 252 254 255 255 256 257 258 259 260 262 263 264 265 266 267 267 267 268 269 269 270 270 270 270 270 270 270 270 270 270 270 271 271 272 274 275 277 278 280 281 281 282 282 283 283 284 285 285 286 286
231 230 233 232 229 229 230 232 234 234 233 233 232 231 232 233 233 233 234 237 239 240 240 240 239 237 236 237 241 244 245 247 247 248 249 251 253 255 256 257 259 259 260 261 263 264 265 266 266 267 267 267 267 267 268 269 269 270 270 271 271 271 271 271 270 271 271 271 272 273 274 275 277 278 279 279 280 281 281 283 284 285 285 286 286 287
230 228 231 231 229 228 229 232 234 235 235 236 236 236 236 236 237 236 236 238 240 242 242 242 242 240 238 239 242 245 248 250 250 250 250 251 253 254 255 257 259 260 261 262 264 266 267 268 268 267 266 266 266 266 267 268 269 269 269 270 270 270 270 271 271 271 271 271 272 273 274 275 276 277 278 278 279 281 282 283 284 285 286 286 287 288
230 227 229 231 231 231 231 232 233 234 234 236 237 239 240 240 241 241 241 240 241 243 245 245 245 243 241 242 243 245 249 252 252 252 251 252 252 253 255 256 258 260 262 263 264 266 267 267 267 266 265 265 265 265 266 266 267 267 268 268 269 269 269 270 270 271 271 271 272 273 275 276 276 277 278 279 280 281 282 284 285 285 286 286 287 288
231 230 229 231 232 232 232 232 232 233 234 234 235 236 238 239 241 242 243 243 242 244 245 247 247 243 242 244 244 245 247 250 252 253 253 254 255 255 256 257 258 260 261 263 264 265 265 265 264 264 264 264 264 264 265 265 266 267 267 267 268 268 269 269 270 271 271 272 274 274 275 276 277 278 279 280 281 282 284 284 285 286 286 287 289 290
231 231 231 233 234 234 233 233 233 233 233 234 235 236 236 238 240 241 243 244 243 243 244 246 248 245 243 245 247 247 248 250 252 254 255 257 258 257 257 257 258 259 260 261 262 262 262 262 262 262 262 263 263 264 265 265 266 266 267 268 268 268 269 270 270 271 272 273 274 275 276 277 277 279 280 281 282 283 284 285 285 286 288 289 291 292
232 231 232 233 234 234 234 233 232 234 235 236 236 236 236 237 238 238 240 242 243 244 244 245 249 250 248 249 250 250 251 252 253 254 255 256 257 257 256 256 257 257 258 258 259 259 259 259 259 260 261 261 262 263 264 264 265 266 267 268 268 269 269 270 271 271 272 273 274 275 276 277 279 280 281 283 283 284 285 285 287 288 289 291 292 293
233 234 234 235 236 237 237 237 240 243 243 241 239 238 238 238 238 238 239 241 242 244 245 245 250 255 254 252 252 252 251 252 252 253 254 254 255 255 255 255 255 256 257 257 257 257 257 258 258 259 259 260 260 261 262 263 264 265 266 267 268 269 270 271 272 273 274 275 276 277 278 279 281 282 283 283 284 285 286 287 288 289 290 292 293 294
233 234 235 237 240 243 245 249 252 253 250 248 248 247 246 245 243 241 240 242 244 247 247 247 251 256 255 252 252 251 250 249 249 250 250 251 252 253 255 255 256 256 257 257 257 258 258 258 258 258 258 259 259 260 260 261 262 263 265 266 268 269 271 272 273 274 276 277 278 279 280 281 282 283 283 284 285 286 287 288 289 289 290 291 292 293
232 233 235 237 239 241 244 246 248 249 249 249 249 249 250 250 250 249 247 247 248 249 249 249 252 255 255 252 252 251 250 249 248 248 249 249 251 253 255 257 258 257 257 257 257 257 257 257 256 256 257 257 257 258 258 259 260 262 263 265 267 269 270 272 273 275 276 277 278 279 280 281 282 283 284 285 286 287 287 288 289 289 290 291 292 292
231 234 235 236 237 238 240 242 244 245 245 244 242 242 243 246 249 252 253 252 251 252 253 254 255 255 256 254 253 253 253 251 249 249 250 250 249 251 254 256 257 257 256 256 256 256 255 255 254 254 254 255 256 256 257 258 259 261 263 265 267 269 271 272 274 274 275 276 277 279 280 281 282 283 284 286 287 287 288 288 289 290 290 291 292 293
229 232 234 235 236 236 237 239 243 244 244 243 242 241 241 242 244 247 250 251 252 254 256 257 256 256 256 256 256 256 256 256 254 252 251 250 248 249 251 253 255 257 256 255 254 253 253 253 252 252 253 254 255 257 258 260 262 264 266 267 269 271 272 273 274 275 276 277 279 280 281 282 283 284 286 287 287 288 288 289 289 290 290 291 292 293
227 229 231 233 234 235 235 237 241 243 244 244 244 243 243 243 244 246 248 250 252 255 257 259 260 258 257 258 260 260 260 261 260 257 253 250 249 249 251 253 255 256 255 253 251 252 252 253 254 254 254 256 259 261 263 266 267 268 269 271 272 273 274 275 276 277 279 280 281 282 283 284 285 286 286 287 287 288 288 289 289 290 291 292 293 294
229 230 231 232 234 236 237 237 239 241 244 244 243 243 244 245 247 249 252 253 255 258 259 260 261 261 262 265 264 262 262 263 261 259 256 252 249 249 251 253 255 255 254 253 252 253 254 256 258 258 259 261 263 266 267 269 269 270 271 272 273 274 276 277 278 279 280 281 282 283 284 285 285 286 286 286 287 288 288 289 289 290 291 292 293 293
233 234 235 236 238 240 240 240 240 241 242 243 244 248 249 251 252 253 253 253 255 257 258 259 261 263 266 267 262 257 257 259 259 258 256 253 250 249 252 254 255 256 256 256 256 256 257 259 260 262 263 264 266 268 268 269 269 271 272 273 274 275 276 277 278 279 280 281 282 282 283 284 285 285 286 286 287 288 288 289 290 290 291 292 293 294
234 235 236 238 239 241 242 242 242 242 242 245 251 255 254 254 254 254 254 255 256 258 260 261 261 259 258 259 256 253 253 255 256 257 256 255 252 251 252 254 255 257 258 259 259 260 261 261 262 263 264 265 267 268 269 270 271 272 273 274 275 276 277 277 278 279 280 281 282 282 283 284 284 285 285 286 287 288 289 289 290 292 293 294 295 295
233 233 234 236 238 239 240 241 241 242 246 250 252 252 252 253 253 253 254 255 255 256 258 258 257 255 255 258 259 258 257 257 256 255 254 254 253 252 252 254 256 258 260 261 262 262 263 263 264 265 266 267 268 269 270 272 272 273 274 275 276 277 277 278 279 280 281 282 282 283 283 284 284 285 286 287 288 288 289 290 291 293 294 294 295 296
236 236 236 236 236 237 238 239 241 244 248 248 247 248 251 253 254 255 255 254 254 256 257 258 258 259 260 261 263 262 261 260 258 256 254 253 254 255 256 257 259 261 262 263 263 263 264 266 267 268 268 268 269 270 271 272 273 274 275 276 276 277 278 279 279 280 281 281 282 283 283 284 284 285 286 287 288 289 290 291 292 293 294 295 295 296
237 239 239 239 239 240 242 243 245 247 247 247 249 253 256 257 259 259 259 258 257 257 259 261 262 262 261 261 261 260 260 258 257 255 254 254 256 258 260 261 262 262 262 263 263 264 265 266 267 268 269 269 270 271 272 273 274 275 275 276 276 277 278 278 279 280 280 281 282 282 283 284 285 286 286 287 288 289 290 291 292 293 293 294 295 295
235 237 239 240 241 241 243 244 245 247 248 250 254 257 257 258 258 258 259 259 258 260 263 264 264 263 262 261 260 260 259 258 256 255 255 256 258 259 261 261 262 263 263 264 265 266 266 267 268 269 269 270 271 272 272 273 274 274 275 275 276 276 277 278 279 280 280 281 282 283 283 284 285 285 286 287 288 289 290 291 291 292 293 294 294 295
237 238 239 240 241 242 244 245 246 249 250 251 253 255 256 257 257 257 258 259 261 265 266 265 266 266 265 264 263 261 260 260 259 259 259 261 262 262 261 261 262 264 265 266 266 266 267 267 267 268 269 269 270 271 272 272 273 274 274 275 275 276 277 278 279 280 281 281 282 283 283 284 284 285 286 287 288 289 290 290 291 292 293 293 294 294
241 241 240 240 242 245 246 247 250 252 252 250 251 254 256 257 257 256 258 262 267 268 267 269 270 268 265 264 263 261 261 262 262 260 260 262 262 262 261 261 262 263 264 265 266 266 267 267 267 267 268 269 269 270 270 271 272 272 273 274 275 276 278 279 279 280 281 281 282 282 283 284 285 286 287 287 288 289 289 290 291 292 293 293 293 293
243 243 243 244 246 248 249 251 253 254 252 251 252 253 255 258 258 257 262 269 271 267 268 270 270 268 266 265 264 263 263 264 263 261 260 261 262 262 261 261 261 262 263 264 265 266 266 267 267 267 268 268 269 269 270 270 271 272 273 275 276 277 278 279 279 280 280 281 282 283 284 284 285 286 287 287 288 289 290 290 291 291 292 292 293 293
243 244 244 245 246 248 250 251 253 254 253 252 253 253 253 256 258 261 266 271 270 268 269 268 267 268 267 265 264 264 264 263 263 261 261 261 262 262 262 262 262 262 263 263 264 264 265 266 266 267 267 268 269 270 271 272 273 274 275 276 277 278 279 280 280 281 281 282 283 283 284 285 285 286 286 287 288 288 289 289 290 290 291 292 292 293
243 244 245 246 247 248 249 250 251 253 253 253 254 255 256 258 262 267 270 270 269 269 267 264 264 264 263 262 262 260 260 260 260 260 260 260 261 262 262 262 262 262 262 263 263 263 264 265 265 266 267 269 270 271 273 274 275 276 277 278 279 280 281 281 282 282 282 283 283 283 284 284 285 286 286 287 287 287 288 289 289 290 291 291 292 292
242 243 245 247 248 248 249 250 252 255 256 256 258 260 262 263 265 265 264 262 261 260 258 257 257 256 256 257 257 255 255 255 256 257 258 258 259 261 261 262 262 262 263 263 263 264 265 266 267 268 270 271 272 273 274 275 276 276 277 278 279 279 280 280 280 281 281 281 282 282 283 284 284 285 286 286 286 287 288 288 289 289 290 290 291 292
242 243 245 247 248 250 251 253 255 256 257 256 256 257 258 258 259 258 257 256 255 255 253 252 252 253 254 255 255 255 255 254 254 256 257 257 258 259 260 261 261 262 263 264 265 267 267 268 269 270 271 272 273 273 274 274 275 276 276 276 277 277 277 278 278 279 279 280 281 282 282 283 284 284 285 285 286 287 287 287 288 288 289 290 291 292
243 243 245 247 249 250 252 252 253 253 253 254 254 254 255 255 256 257 257 256 255 255 254 253 253 254 256 257 258 258 257 257 257 258 259 259 259 260 261 262 262 263 264 266 267 268 269 270 271 271 271 272 272 273 273 274 274 275 275 276 276 276 277 277 278 278 279 279 280 281 281 282 283 283 284 285 285 286 286 286 287 287 289 290 291 291
244 243 244 246 247 248 249 250 251 252 253 254 254 255 255 256 257 257 258 258 257 256 255 256 256 256 257 258 260 260 260 260 260 260 260 261 261 262 262 263 264 265 266 266 267 268 269 270 270 271 271 271 271 272 272 273 274 274 274 275 275 275 276 276 277 278 278 279 279 280 281 281 282 283 283 284 285 285 285 286 287 288 289 290 290 290
247 246 246 246 247 248 249 250 251 252 253 253 253 253 254 255 256 256 256 256 257 257 256 256 256 256 256 257 259 260 261 261 261 261 261 261 261 262 263 263 264 265 265 265 266 266 267 268 268 269 270 271 272 272 273 273 273 273 273 273 274 274 275 276 277 277 278 279 279 280 281 281 282 283 283 284 284 285 285 286 287 288 289 289 289 289
247 247 247 247 248 249 249 249 250 251 251 251 252 253 253 254 255 255 256 256 257 257 257 257 257 257 257 257 258 259 260 260 261 261 261 261 261 261 261 261 262 262 262 263 264 265 266 267 268 269 270 271 272 272 273 273 273 273 273 274 275 276 276 277 278 278 278 279 280 280 281 282 282 283 283 284 284 285 285 286 287 288 288 288 288 288
247 248 248 248 248 249 250 250 250 251 251 252 252 252 253 253 254 255 255 256 257 257 258 258 259 259 259 258 258 258 258 259 260 261 261 262 261 261 261 261 261 262 263 264 265 266 267 267 268 269 270 270 271 272 272 273 273 274 275 276 276 277 278 278 279 279 279 280 281 281 282 282 282 283 283 284 285 285 286 286 287 287 287 287 287 287
248 249 249 249 249 250 250 250 250 250 251 251 251 251 252 252 253 254 255 256 257 258 259 259 260 260 260 260 260 259 260 260 260 261 262 262 262 262 263 263 264 264 265 266 266 267 267 267 268 269 269 270 271 272 272 273 274 274 275 276 276 277 278 279 279 280 280 281 281 282 282 282 283 283 284 285 285 286 286 286 287 287 287 287 287 288
Height
5756 5758 5761 5765 5769 5771 5774 5778 5783 5788 5792 5796 5802 5806 5807 5810 5816 5821 5825 5828 5830 5832 5834 5837 5840 5842 5843 5845 5847 5848 5850 5853 5856 5858 5860 5861 5863 5864 5865 5867 5868 5869 5870 5871 5872 5874 5875 5876 5878 5879 5880 5880 5881 5882 5883 5883 5883 5884 5884 5885 5885 5885 5886 5886 5886 5886 5885 5885 5884 5884 5884 5883 5883 5882 5882 5881 5880 5879 5877 5876 5875 5874 5873 5872 5871 5870
5754 5757 5761 5764 5765 5767 5770 5776 5781 5785 5790 5793 5796 5800 5803 5807 5813 5817 5821 5824 5826 5828 5831 5833 5835 5838 5839 5841 5843 5844 5847 5852 5854 5856 5858 5859 5860 5862 5863 5864 5865 5866 5867 5868 5870 5872 5873 5874 5876 5877 5878 5878 5879 5880 5881 5881 5881 5882 5883 5883 5883 5883 5883 5884 5884 5884 5883 5883 5883 5883 5882 5882 5881 5881 5880 5879 5878 5877 5875 5874 5873 5872 5871 5870 5870 5869
5752 5755 5758 5760 5761 5764 5768 5773 5778 5782 5786 5788 5792 5798 5802 5806 5810 5813 5817 5821 5823 5825 5827 5828 5831 5834 5837 5838 5839 5841 5846 5850 5852 5854 5856 5857 5858 5860 5862 5862 5863 5864 5865 5867 5868 5869 5871 5872 5874 5875 5876 5876 5877 5878 5878 5879 5879 5880 5880 5881 5881 5881 5881 5881 5882 5881 5881 5881 5880 5880 5880 5880 5879 5878 5878 5877 5876 5875 5874 5872 5872 5871 5870 5869 5868 5867
5750 5753 5755 5756 5758 5761 5765 5769 5774 5778 5783 5786 5791 5798 5801 5804 5808 5811 5815 5818 5819 5821 5823 5825 5827 5831 5833 5834 5836 5839 5844 5847 5849 5851 5853 5854 5856 5858 5859 5860 5861 5862 5863 5865 5866 5867 5869 5870 5872 5873 5873 5874 5875 5875 5876 5877 5877 5877 5877 5878 5878 5879 5878 5878 5878 5879 5878 5878 5878 5878 5877 5877 5877 5876 5875 5875 5874 5873 5872 5871 5869 5868 5867 5866 5865 5864
5748 5751 5753 5754 5755 5758 5761 5766 5771 5776 5780 5784 5789 5795 5798 5801 5804 5808 5812 5814 5816 5818 5820 5822 5824 5827 5831 5832 5835 5839 5842 5844 5846 5848 5850 5852 5854 5855 5856 5858 5859 5860 5861 5862 5864 5865 5866 5868 5869 5870 5871 5871 5872 5873 5874 5874 5874 5874 5875 5875 5875 5876 5876 5875 5875 5875 5875 5875 5875 5875 5874 5874 5874 5873 5872 5872 5871 5871 5870 5869 5867 5866 5865 5863 5862 5861
5746 5749 5751 5752 5754 5756 5759 5764 5769 5773 5777 5782 5786 5791 5794 5797 5801 5805 5808 5810 5813 5816 5819 5820 5821 5825 5829 5831 5834 5837 5838 5840 5843 5846 5848 5850 5851 5853 5854 5856 5857 5858 5859 5860 5861 5863 5864 5865 5866 5867 5868 5869 5870 5871 5871 5871 5871 5872 5872 5872 5873 5873 5873 5872 5872 5871 5872 5872 5872 5871 5871 5871 5871 5870 5869 5869 5868 5867 5867 5866 5864 5863 5862 5861 5859 5858
5743 5746 5749 5750 5752 5754 5757 5762 5766 5770 5774 5779 5784 5788 5791 5794 5798 5802 5805 5808 5810 5813 5816 5817 5818 5823 5827 5828 5830 5833 5834 5837 5840 5843 5845 5847 5848 5850 5852 5854 5855 5855 5856 5857 5859 5860 5861 5862 5864 5865 5866 5866 5867 5867 5867 5868 5868 5869 5869 5869 5870 5870 5870 5870 5869 5868 5869 5869 5869 5868 5868 5868 5868 5867 5866 5866 5865 5864 5863 5862 5861 5860 5859 5858 5856 5855
5740 5743 5746 5748 5750 5753 5755 5760 5764 5767 5771 5776 5781 5785 5788 5791 5796 5800 5802 5804 5807 5809 5811 5813 5815 5818 5822 5825 5827 5829 5832 5835 5838 5840 5843 5845 5846 5848 5850 5851 5852 5853 5854 5855 5856 5857 5858 5860 5861 5862 5863 5863 5864 5864 5864 5865 5865 5866 5866 5866 5867 5867 5867 5867 5867 5866 5866 5866 5866 5865 5865 5865 5864 5863 5863 5862 5861 5861 5860 5859 5858 5857 5856 5855 5853 5852
5739 5741 5744 5746 5748 5751 5754 5758 5761 5764 5768 5773 5778 5782 5785 5788 5793 5796 5799 5801 5803 5805 5806 5810 5812 5813 5817 5823 5824 5826 5829 5832 5835 5838 5841 5843 5844 5845 5847 5848 5849 5850 5851 5852 5853 5854 5855 5856 5858 5859 5860 5860 5861 5861 5862 5862 5862 5862 5863 5863 5863 5864 5864 5864 5864 5863 5863 5863 5863 5862 5862 5861 5861 5860 5859 5859 5858 5858 5857 5856 5855 5854 5853 5851 5850 5849
5737 5740 5742 5745 5747 5750 5754 5757 5759 5762 5766 5770 5775 5779 5783 5786 5789 5793 5794 5797 5799 5799 5802 5807 5810 5809 5813 5820 5821 5822 5826 5830 5833 5836 5838 5840 5841 5842 5844 5845 5846 5848 5849 5850 5851 5851 5852 5853 5854 5855 5856 5857 5858 5858 5859 5859 5859 5859 5860 5860 5860 5860 5860 5861 5860 5860 5859 5860 5859 5859 5858 5857 5857 5856 5856 5855 5855 5854 5854 5853 5852 5850 5849 5848 5846 5845
5734 5737 5740 5742 5745 5748 5752 5755 5758 5761 5763 5767 5771 5774 5779 5782 5785 5788 5790 5792 5793 5793 5798 5803 5806 5807 5808 5814 5818 5819 5824 5828 5831 5833 5834 5836 5838 5839 5841 5842 5844 5845 5846 5847 5847 5848 5849 5850 5850 5851 5853 5854 5854 5855 5855 5856 5856 5856 5856 5856 5856 5857 5857 5857 5857 5856 5856 5856 5856 5855 5855 5854 5853 5853 5852 5851 5851 5850 5850 5849 5848 5847 5846 5844 5843 5841
5731 5733 5736 5739 5743 5746 5749 5752 5755 5758 5760 5764 5767 5771 5776 5778 5780 5782 5784 5786 5786 5789 5795 5799 5802 5803 5802 5808 5815 5816 5821 5827 5829 5830 5831 5834 5836 5837 5838 5839 5841 5841 5842 5843 5844 5844 5845 5846 5847 5848 5849 5850 5850 5850 5851 5851 5852 5852 5853 5853 5853 5853 5853 5853 5853 5853 5852 5852 5852 5851 5850 5850 5849 5848 5848 5847 5847 5846 5846 5845 5844 5843 5842 5840 5839 5837
5727 5730 5733 5736 5739 5743 5746 5749 5752 5755 5757 5760 5763 5767 5771 5773 5775 5777 5778 5780 5782 5787 5791 5794 5797 5798 5797 5805 5812 5815 5819 5825 5826 5827 5829 5831 5833 5834 5834 5836 5837 5838 5839 5840 5840 5841 5842 5842 5843 5843 5845 5845 5846 5846 5847 5847 5847 5848 5848 5848 5849 5849 5849 5849 5849 5849 5848 5848 5848 5847 5846 5846 5845 5844 5843 5843 5842 5842 5841 5841 5840 5839 5837 5836 5834 5832
5723 5726 5729 5732 5735 5739 5742 5745 5748 5752 5755 5757 5759 5763 5767 5768 5769 5771 5774 5776 5780 5784 5787 5790 5792 5793 5796 5803 5810 5814 5818 5821 5823 5825 5826 5828 5829 5830 5831 5831 5833 5834 5835 5836 5837 5838 5838 5839 5839 5840 5840 5841 5841 5842 5842 5842 5843 5843 5843 5844 5844 5845 5845 5845 5845 5845 5844 5843 5843 5842 5842 5841 5840 5840 5839 5838 5838 5837 5837 5836 5835 5834 5833 5831 5829 5828
5722 5724 5727 5730 5732 5735 5739 5742 5746 5750 5753 5755 5758 5760 5763 5765 5766 5770 5773 5775 5779 5782 5784 5786 5788 5790 5796 5801 5805 5812 5816 5817 5819 5821 5822 5823 5825 5826 5827 5828 5829 5830 5832 5833 5834 5834 5835 5835 5836 5836 5837 5837 5837 5837 5837 5837 5838 5838 5838 5839 5839 5840 5840 5840 5840 5840 5839 5839 5838 5838 5837 5836 5836 5835 5834 5834 5833 5833 5832 5831 5830 5829 5827 5826 5825 5823
5719 5723 5727 5730 5732 5735 5738 5741 5744 5747 5750 5752 5754 5755 5759 5763 5765 5768 5771 5773 5777 5778 5779 5782 5784 5789 5795 5797 5801 5808 5812 5813 5814 5815 5817 5819 5821 5823 5824 5825 5826 5827 5828 5829 5829 5830 5831 5831 5832 5832 5833 5833 5833 5833 5833 5833 5833 5833 5833 5834 5834 5834 5835 5835 5835 5835 5835 5834 5834 5833 5832 5832 5831 5830 5830 5829 5829 5828 5827 5826 5825 5823 5822 5821 5819 5818
5716 5720 5724 5727 5730 5732 5735 5738 5741 5744 5746 5748 5749 5751 5756 5761 5762 5764 5768 5770 5772 5772 5774 5778 5782 5787 5791 5793 5796 5802 5806 5809 5810 5811 5813 5815 5816 5819 5821 5821 5822 5823 5824 5825 5825 5826 5827 5827 5827 5828 5828 5829 5829 5829 5829 5829 5829 5828 5829 5829 5829 5830 5830 5830 5830 5830 5830 5829 5829 5828 5828 5827 5826 5826 5825 5825 5824 5823 5822 5821 5819 5818 5817 5816 5814 5813
5716 5718 5721 5725 5727 5730 5733 5735 5738 5741 5743 5745 5746 5750 5754 5757 5758 5761 5764 5765 5767 5768 5770 5774 5778 5782 5786 5788 5792 5797 5802 5805 5807 5808 5809 5811 5812 5814 5816 5817 5818 5819 5820 5820 5821 5822 5822 5823 5823 5823 5824 5824 5824 5824 5824 5824 5824 5824 5824 5824 5825 5825 5825 5825 5825 5824 5824 5824 5823 5823 5822 5822 5821 5821 5820 5820 5819 5818 5817 5816 5814 5813 5812 5811 5810 5808
5714 5717 5719 5723 5725 5728 5730 5732 5735 5738 5740 5742 5744 5748 5750 5751 5755 5758 5759 5760 5763 5764 5766 5770 5773 5777 5781 5785 5790 5794 5798 5800 5803 5805 5806 5807 5808 5809 5811 5812 5814 5815 5815 5815 5816 5817 5817 5818 5819 5819 5820 5820 5820 5819 5819 5819 5819 5819 5819 5820 5820 5820 5820 5820 5819 5819 5819 5818 5818 5817 5817 5816 5816 5816 5815 5814 5814 5813 5812 5811 5809 5808 5807 5806 5805 5804
5710 5713 5715 5719 5722 5725 5726 5728 5730 5733 5736 5738 5741 5744 5746 5748 5751 5754 5756 5758 5760 5761 5763 5766 5768 5771 5777 5784 5788 5791 5793 5795 5798 5801 5802 5803 5804 5805 5806 5808 5809 5809 5809 5810 5811 5812 5813 5813 5814 5815 5815 5814 5814 5814 5814 5814 5814 5815 5815 5815 5815 5815 5815 5814 5814 5814 5813 5813 5812 5812 5812 5811 5811 5811 5810 5809 5809 5808 5807 5806 5804 5803 5802 5801 5800 5799
5706 5710 5712 5715 5718 5720 5722 5724 5727 5730 5733 5736 5738 5740 5743 5746 5748 5750 5753 5755 5756 5757 5760 5761 5762 5767 5775 5781 5785 5787 5789 5791 5794 5796 5798 5799 5800 5801 5802 5803 5803 5803 5804 5805 5806 5807 5808 5809 5809 5809 5809 5808 5808 5809 5809 5810 5810 5810 5810 5810 5810 5810 5809 5809 5809 5808 5808 5808 5807 5807 5807 5807 5806 5806 5805 5804 5803 5802 5801 5800 5799 5798 5797 5796 5795 5794
5702 5706 5708 5710 5713 5716 5719 5722 5725 5728 5731 5734 5736 5738 5741 5743 5744 5746 5748 5751 5753 5755 5756 5758 5758 5764 5772 5777 5781 5785 5786 5786 5788 5790 5792 5793 5795 5797 5797 5798 5798 5798 5799 5800 5801 5802 5803 5803 5803 5803 5803 5803 5803 5804 5804 5805 5805 5805 5805 5805 5805 5804 5804 5804 5803 5803 5803 5803 5802 5802 5802 5801 5801 5800 5800 5799 5798 5797 5796 5795 5794 5793 5792 5791 5789 5788
5699 5702 5704 5706 5709 5713 5716 5719 5721 5724 5728 5730 5732 5734 5737 5738 5739 5741 5742 5746 5750 5750 5752 5754 5753 5759 5768 5772 5776 5781 5781 5780 5782 5784 5787 5788 5790 5792 5793 5793 5793 5794 5795 5796 5796 5797 5797 5797 5797 5797 5797 5797 5798 5799 5799 5800 5800 5800 5800 5800 5799 5799 5799 5799 5798 5798 5798 5798 5798 5797 5797 5796 5796 5795 5794 5793 5793 5792 5791 5790 5788 5787 5786 5785 5783 5782
5696 5698 5700 5703 5705 5709 5712 5715 5717 5720 5723 5725 5727 5730 5732 5733 5735 5737 5738 5742 5744 5744 5749 5749 5747 5754 5766 5769 5772 5775 5776 5777 5779 5781 5783 5784 5786 5786 5786 5787 5788 5788 5790 5790 5791 5791 5791 5791 5791 5792 5792 5793 5793 5794 5795 5795 5795 5795 5795 5795 5794 5794 5794 5794 5794 5794 5793 5793 5793 5792 5792 5791 5790 5789 5789 5788 5787 5786 5785 5784 5783 5782 5780 5779 5777 5775
5691 5692 5694 5698 5700 5703 5706 5709 5711 5714 5717 5719 5722 5725 5727 5729 5732 5733 5734 5736 5737 5740 5745 5745 5744 5754 5765 5768 5769 5770 5771 5774 5777 5778 5779 5779 5779 5779 5779 5780 5781 5782 5783 5784 5785 5785 5785 5786 5786 5787 5788 5788 5789 5789 5790 5790 5790 5790 5790 5789 5789 5789 5789 5789 5789 5789 5789 5788 5788 5787 5786 5785 5785 5784 5783 5782 5781 5780 5779 5778 5777 5775 5774 5772 5770 5769
5686 5687 5690 5693 5694 5696 5700 5704 5708 5711 5713 5715 5718 5721 5723 5725 5727 5729 5731 5731 5732 5737 5740 5740 5744 5754 5761 5763 5764 5764 5766 5770 5772 5772 5773 5773 5771 5771 5771 5773 5774 5776 5778 5779 5779 5780 5780 5781 5782 5782 5783 5783 5784 5784 5784 5785 5785 5785 5784 5784 5784 5784 5784 5784 5783 5783 5783 5783 5782 5781 5780 5780 5779 5778 5777 5776 5775 5774 5773 5772 5770 5769 5767 5765 5764 5762
5680 5682 5686 5689 5691 5694 5700 5704 5707 5710 5712 5714 5718 5721 5722 5723 5725 5726 5726 5726 5731 5735 5734 5736 5744 5750 5754 5757 5757 5758 5761 5764 5765 5766 5766 5766 5764 5764 5765 5767 5769 5771 5773 5773 5774 5774 5775 5776 5776 5777 5777 5778 5778 5779 5779 5779 5779 5779 5778 5778 5778 5778 5778 5778 5778 5778 5778 5777 5776 5776 5775 5774 5773 5772 5771 5770 5769 5768 5767 5766 5764 5762 5761 5759 5757 5755
5673 5676 5681 5684 5688 5693 5697 5698 5699 5703 5707 5710 5714 5716 5717 5719 5720 5720 5721 5725 5730 5729 5728 5735 5742 5743 5747 5752 5752 5752 5755 5757 5759 5760 5760 5760 5760 5759 5760 5763 5765 5766 5767 5768 5769 5769 5769 5770 5770 5771 5772 5772 5773 5773 5773 5773 5773 5773 5773 5773 5773 5773 5773 5773 5773 5772 5772 5771 5771 5770 5769 5768 5767 5766 5765 5764 5763 5762 5761 5759 5757 5756 5754 5752 5750 5748
5668 5672 5677 5680 5683 5688 5690 5689 5691 5696 5700 5703 5706 5708 5711 5713 5713 5713 5716 5721 5724 5722 5724 5733 5737 5736 5741 5747 5748 5748 5748 5750 5753 5754 5754 5755 5755 5756 5757 5759 5759 5760 5761 5763 5763 5764 5764 5764 5765 5765 5766 5767 5767 5767 5767 5767 5767 5768 5768 5768 5768 5768 5768 5768 5767 5767 5766 5766 5765 5764 5763 5762 5761 5760 5759 5758 5757 5755 5754 5752 5750 5748 5747 5745 5743 5741
5662 5667 5671 5673 5676 5681 5683 5683 5686 5690 5692 5695 5699 5702 5705 5707 5708 5709 5712 5715 5717 5717 5722 5729 5729 5730 5736 5741 5744 5744 5743 5745 5748 5749 5749 5750 5751 5752 5753 5753 5754 5754 5755 5757 5758 5758 5758 5758 5759 5759 5760 5761 5761 5762 5762 5762 5763 5763 5763 5764 5764 5763 5763 5762 5761 5761 5761 5760 5759 5759 5758 5756 5755 5754 5753 5751 5750 5748 5747 5745 5743 5741 5739 5737 5735 5733
5658 5662 5664 5667 5670 5673 5676 5679 5682 5683 5685 5688 5692 5695 5699 5701 5703 5706 5708 5711 5712 5713 5719 5724 5722 5725 5734 5738 5739 5741 5740 5740 5742 5743 5745 5746 5747 5748 5748 5747 5748 5748 5748 5750 5751 5751 5752 5752 5753 5754 5755 5755 5756 5757 5757 5758 5758 5758 5758 5758 5758 5757 5756 5756 5755 5755 5755 5754 5753 5752 5751 5750 5749 5747 5746 5744 5743 5741 5739 5737 5735 5733 5731 5729 5728 5726
5655 5657 5659 5662 5664 5666 5672 5676 5676 5678 5679 5680 5683 5689 5694 5696 5699 5702 5705 5708 5708 5709 5715 5718 5717 5724 5733 5735 5735 5736 5735 5734 5735 5738 5740 5742 5742 5742 5741 5740 5740 5740 5740 5743 5745 5746 5747 5747 5748 5748 5749 5750 5751 5752 5752 5753 5752 5752 5752 5752 5751 5750 5750 5750 5749 5749 5748 5747 5746 5745 5744 5742 5741 5740 5738 5737 5735 5734 5732 5730 5728 5726 5724 5722 5720 5718
5651 5653 5657 5659 5660 5664 5669 5670 5671 5673 5670 5669 5678 5688 5693 5694 5697 5698 5700 5703 5704 5705 5708 5711 5715 5724 5729 5727 5728 5730 5728 5727 5729 5732 5733 5735 5736 5735 5733 5732 5732 5733 5735 5737 5739 5740 5741 5741 5742 5743 5743 5744 5745 5746 5746 5746 5746 5746 5745 5745 5744 5744 5744 5744 5743 5742 5742 5741 5739 5738 5736 5735 5734 5732 5731 5729 5727 5726 5724 5722 5720 5718 5716 5714 5712 5710
5646 5649 5652 5654 5656 5661 5663 5664 5666 5662 5658 5668 5684 5689 5689 5690 5692 5691 5694 5698 5700 5701 5702 5706 5712 5718 5718 5717 5720 5722 5722 5722 5724 5726 5727 5728 5729 5727 5725 5725 5726 5727 5730 5732 5733 5733 5733 5734 5735 5736 5738 5738 5739 5739 5739 5739 5739 5739 5739 5738 5738 5737 5737 5737 5736 5735 5734 5733 5732 5730 5729 5728 5726 5725 5723 5721 5720 5718 5716 5714 5712 5710 5708 5705 5703 5701
5639 5642 5645 5647 5650 5653 5654 5656 5653 5649 5657 5675 5683 5681 5681 5684 5684 5685 5688 5693 5695 5695 5696 5699 5704 5709 5710 5712 5714 5715 5717 5718 5718 5719 5721 5721 5719 5718 5717 5719 5721 5723 5725 5726 5725 5725 5725 5727 5729 5730 5731 5732 5732 5732 5732 5732 5732 5732 5732 5731 5731 5730 5730 5729 5728 5727 5726 5725 5724 5722 5721 5720 5718 5717 5715 5713 5712 5710 5708 5706 5704 5702 5699 5697 5695 5693
5635 5637 5639 5641 5642 5644 5646 5645 5643 5647 5661 5670 5670 5673 5677 5677 5677 5678 5680 5685 5690 5690 5690 5693 5699 5704 5707 5708 5709 5708 5710 5712 5711 5713 5714 5712 5710 5710 5711 5714 5717 5718 5718 5717 5716 5717 5719 5721 5723 5723 5724 5725 5725 5725 5726 5725 5725 5725 5724 5724 5723 5722 5722 5721 5720 5719 5718 5717 5716 5715 5714 5712 5711 5709 5707 5705 5704 5702 5700 5698 5696 5694 5691 5689 5687 5685
5630 5631 5633 5635 5636 5638 5641 5640 5641 5647 5654 5660 5666 5673 5675 5672 5672 5672 5671 5678 5685 5686 5686 5690 5695 5700 5702 5702 5700 5700 5701 5702 5702 5705 5707 5704 5702 5703 5705 5709 5710 5709 5707 5708 5709 5712 5714 5715 5716 5716 5716 5717 5718 5718 5718 5718 5718 5717 5716 5716 5715 5714 5714 5713 5712 5711 5710 5709 5708 5707 5706 5704 5703 5701 5699 5697 5696 5694 5692 5690 5688 5686 5684 5681 5679 5677
5623 5625 5628 5628 5630 5633 5635 5635 5637 5638 5646 5661 5670 5672 5670 5667 5667 5666 5663 5668 5679 5682 5683 5686 5689 5693 5695 5693 5691 5693 5693 5690 5691 5700 5703 5697 5694 5697 5699 5700 5700 5698 5698 5701 5704 5706 5707 5708 5708 5709 5709 5709 5710 5710 5710 5710 5709 5709 5708 5707 5707 5706 5705 5705 5704 5703 5702 5701 5700 5699 5697 5696 5695 5693 5692 5690 5688 5686 5684 5682 5680 5678 5676 5673 5671 5668
5618 5620 5623 5622 5623 5627 5628 5629 5630 5632 5646 5662 5666 5664 5663 5661 5661 5659 5653 5660 5677 5682 5678 5679 5683 5687 5687 5684 5684 5686 5684 5681 5686 5696 5697 5690 5688 5691 5691 5692 5692 5691 5692 5695 5697 5698 5699 5700 5700 5701 5701 5701 5701 5701 5701 5700 5700 5700 5699 5699 5698 5697 5697 5697 5696 5696 5694 5693 5692 5691 5689 5688 5687 5685 5684 5682 5680 5678 5676 5674 5672 5670 5668 5665 5663 5660
5612 5614 5615 5614 5617 5621 5623 5624 5626 5631 5645 5657 5657 5657 5657 5655 5654 5651 5646 5659 5679 5678 5672 5675 5678 5679 5678 5676 5676 5678 5677 5677 5683 5688 5685 5680 5681 5683 5684 5685 5686 5685 5685 5687 5688 5689 5690 5690 5691 5692 5692 5693 5692 5692 5692 5691 5691 5691 5691 5691 5690 5690 5690 5689 5689 5688 5687 5685 5684 5683 5682 5680 5679 5677 5676 5674 5672 5670 5668 5666 5664 5661 5659 5657 5654 5652
5605 5607 5608 5610 5614 5617 5618 5619 5622 5628 5641 5650 5650 5650 5650 5647 5644 5642 5646 5662 5671 5667 5667 5672 5670 5668 5669 5668 5668 5671 5672 5674 5675 5675 5674 5673 5674 5675 5676 5678 5679 5678 5679 5679 5679 5680 5681 5681 5682 5682 5683 5683 5683 5683 5683 5683 5683 5683 5683 5683 5683 5682 5682 5682 5681 5680 5679 5677 5676 5675 5673 5672 5670 5669 5667 5665 5664 5662 5659 5658 5655 5653 5651 5648 5646 5643
5598 5600 5601 5604 5608 5611 5613 5614 5615 5623 5638 5645 5642 5641 5642 5638 5636 5640 5650 5658 5657 5656 5661 5663 5661 5661 5660 5658 5661 5665 5666 5667 5666 5666 5667 5667 5666 5667 5668 5670 5671 5671 5671 5672 5671 5672 5672 5672 5673 5674 5674 5674 5674 5674 5675 5675 5675 5675 5675 5675 5675 5674 5674 5673 5672 5671 5670 5669 5668 5666 5665 5663 5662 5660 5659 5657 5655 5653 5651 5649 5647 5645 5642 5640 5637 5635
5593 5593 5594 5598 5604 5606 5606 5606 5608 5618 5633 5637 5633 5633 5635 5634 5635 5640 5646 5648 5647 5649 5652 5652 5653 5654 5650 5649 5653 5656 5657 5658 5657 5658 5660 5660 5659 5659 5660 5662 5664 5663 5663 5663 5663 5663 5664 5665 5665 5666 5666 5667 5667 5667 5667 5667 5667 5667 5667 5666 5666 5665 5665 5664 5663 5662 5661 5660 5658 5657 5656 5654 5653 5651 5650 5648 5647 5645 5643 5641 5638 5636 5634 5631 5629 5626
5585 5587 5588 5593 5598 5597 5596 5598 5605 5616 5626 5630 5629 5630 5630 5630 5631 5633 5635 5636 5638 5640 5641 5642 5644 5642 5640 5640 5642 5644 5648 5649 5648 5650 5652 5652 5652 5652 5653 5655 5656 5655 5655 5655 5655 5655 5657 5657 5659 5659 5659 5660 5660 5660 5660 5660 5660 5660 5659 5659 5658 5657 5657 5656 5654 5653 5652 5651 5650 5648 5647 5646 5644 5643 5641 5639 5638 5636 5634 5632 5630 5628 5625 5623 5620 5618
5578 5583 5586 5588 5590 5589 5590 5597 5606 5614 5619 5621 5623 5623 5621 5620 5621 5622 5624 5627 5628 5630 5632 5634 5634 5633 5632 5632 5632 5635 5639 5640 5640 5642 5644 5644 5645 5645 5645 5647 5648 5648 5649 5648 5648 5649 5650 5650 5652 5653 5653 5653 5653 5653 5653 5652 5652 5652 5652 5651 5650 5650 5649 5648 5647 5646 5644 5643 5642 5640 5639 5637 5636 5634 5632 5631 5629 5627 5625 5624 5622 5619 5617 5614 5612 5609
5574 5579 5581 5581 5583 5584 5587 5593 5601 5607 5609 5611 5612 5613 5613 5612 5613 5614 5616 5618 5620 5622 5623 5625 5627 5627 5626 5625 5625 5627 5630 5631 5633 5635 5636 5637 5638 5637 5638 5639 5640 5641 5642 5642 5642 5642 5642 5643 5644 5644 5645 5645 5645 5645 5645 5644 5644 5644 5643 5642 5642 5641 5640 5639 5638 5637 5636 5635 5633 5632 5630 5629 5627 5626 5624 5622 5621 5619 5617 5615 5613 5610 5608 5606 5603 5601
5567 5572 5573 5573 5575 5577 5580 5587 5595 5599 5600 5602 5604 5606 5607 5606 5606 5608 5609 5609 5611 5613 5615 5617 5620 5620 5620 5619 5619 5619 5621 5624 5626 5627 5628 5630 5630 5630 5631 5631 5631 5633 5634 5634 5635 5635 5635 5635 5635 5635 5635 5636 5636 5636 5636 5636 5636 5635 5634 5634 5633 5632 5631 5631 5630 5629 5628 5626 5625 5624 5622 5621 5619 5618 5616 5614 5613 5611 5609 5607 5605 5602 5600 5598 5595 5593
5561 5565 5566 5566 5568 5571 5576 5584 5588 5590 5591 5593 5596 5598 5599 5598 5598 5600 5601 5601 5602 5604 5606 5608 5610 5611 5612 5612 5611 5612 5613 5615 5616 5618 5620 5621 5622 5622 5623 5623 5624 5625 5625 5626 5626 5626 5627 5627 5627 5626 5626 5626 5626 5627 5627 5627 5627 5627 5626 5626 5625 5624 5623 5622 5621 5621 5620 5618 5617 5616 5614 5613 5611 5610 5608 5606 5605 5603 5600 5598 5596 5594 5592 5589 5587 5584
5555 5557 5558 5560 5562 5565 5571 5578 5580 5579 5581 5585 5588 5590 5591 5591 5591 5592 5593 5594 5594 5595 5596 5598 5600 5602 5603 5603 5603 5605 5605 5605 5606 5608 5610 5612 5613 5614 5614 5615 5616 5616 5616 5617 5618 5618 5619 5619 5619 5619 5619 5618 5618 5619 5619 5619 5619 5618 5617 5617 5616 5616 5615 5614 5613 5612 5611 5610 5609 5607 5606 5604 5603 5601 5600 5598 5596 5594 5592 5590 5588 5586 5584 5581 5578 5576
5548 5549 5552 5555 5555 5558 5565 5571 5571 5571 5574 5578 5581 5582 5582 5582 5583 5584 5585 5586 5586 5587 5588 5590 5591 5593 5595 5595 5595 5596 5596 5596 5597 5599 5601 5603 5604 5604 5605 5606 5607 5608 5608 5609 5610 5611 5611 5611 5611 5612 5611 5611 5611 5610 5610 5610 5609 5609 5609 5608 5608 5607 5606 5605 5605 5604 5602 5601 5600 5599 5597 5596 5594 5593 5591 5589 5588 5585 5583 5581 5579 5577 5575 5572 5569 5566
5541 5543 5546 5547 5548 5553 5560 5563 5563 5563 5566 5569 5572 5573 5573 5574 5575 5576 5577 5578 5579 5579 5581 5582 5584 5585 5586 5587 5587 5587 5588 5589 5590 5591 5592 5594 5595 5596 5597 5599 5599 5601 5601 5601 5602 5603 5603 5603 5603 5603 5603 5603 5603 5602 5602 5601 5601 5601 5600 5600 5599 5599 5598 5597 5596 5595 5594 5593 5591 5590 5589 5587 5586 5584 5582 5580 5578 5576 5574 5572 5569 5567 5565 5562 5559 5556